Orbital Elements
Epoch 2021 Mar. 7.0 TT = JDT 2459280.5
T 2021 Feb. 15.49570 TT Rudenko
q 2.1899460 (2000.0) P Q
n 0.12256436 Peri. 134.52601 -0.64739084 -0.76214616
a 4.0138387 Node 355.81243 +0.68158707 -0.57642940
e 0.4544011 Incl. 3.36122 +0.34106329 -0.29472423
P 8.04
From 133 observations 2013 Jan. 6-2021 Mar. 10, mean residual 0".5.
|